STARLINK-1835, 46782

Orbit data source: Space-Track

STARLINK-1835, 46782 is a payload satellite owned by SpaceX/Seattle (US) in LEO that was launched on Sat, 24 Oct 2020 UTC via an FALCON 9 launch vehicle from the Air Force Eastern Test Range (AFETR). Payload-class satellites include a variety of spacecraft equipped with specific instruments for various scientific and technological missions. These include communications satellites like Starlink; space stations such as the ISS; scientific satellites like the Hubble; Earth observation satellites from companies like Planet Labs, Umbra, and HawkEye 360; GPS; miniature CubeSats for education and research; and military/defense satellites.

Loading next visibility...
Identifier
46782, 2020-074AV
Orbit
LEO
Country
Flag of USUS
Related business
Manufacturer
SpaceX/Seattle
Mission
Partially operational Commercial Communications
Bus & Motor
STARLINK, Unknown motor
Mass
260 kg wet, ~248 kg dry
Launch date (UTC)
2020-10-24 (6 years ago)
Launch vehicle
FALCON 9
Launch site
Air Force Eastern Test Range (AFETR)
Object type
Payload
Rocket body
Debris
Shape & HBR
Box + 1 Pan, 10.1 m
Radar Cross Section
13.562 m², Large (>1 m²)

Expand to show TLE details & history
Last TLE update: 18 hours ago

TLE from 18 hours ago
0 STARLINK-1835
1 46782U 20074AV  26125.99970749  .00070584  00000-0  60590-3 0  9997
2 46782  53.0432 353.8842 0008191 162.8247 197.3048 15.68712629306309
Epoch: 2026-05-05T23:59Z
TLE epoch observation values (Epoch: 2026-05-05T23:59:34.727Z)
Latitude
0.00003°
Longitude
130.12303°
Altitude
368.756 km
Speed
7.687 km/s
True Right ascension
23h 35m 32s
True Declination
0° 00' 00"
Sunlit
Object was in daylight at epoch
Visualization orbit readout
Latitude
Unknown
Longitude
Unknown
Altitude
Unknown
Speed
Unknown
Apparent Right ascension
Unknown
Apparent Declination
Unknown
Sunlit
N/A
Visualization observer readout
Local Sidereal Time
01:59:14
Azimuth
Unknown
Elevation
Unknown
Doppler factor
Unknown
Orbital elements
Apogee altitude
368.384 km
Perigee altitude
357.341 km
Semi-major axis
6,740.999 km
Eccentricity
0.00082
Inclination
53.0432°
RAAN
353.8842°
Arg. of periapsis
162.8247°
True anomaly
197.27691°
Mean anomaly
197.3048°
Eccentric anomaly
197.29085°
Mean motion
3.92154 °/min
Orbital period
91.8 mins
BSTAR
0.0006059
Loading maneuver chart data...
Computing Atmospheric mass density...

Documentation

Showing up to 5 results
|